EN

Hourly Weather Lahva

Today, 5 August, Thursday

Time Temperature Precipitation Wind Pressure Humidity
00:00 +16°C° 0.7 mm 2 mps 745 mmHg 80%
01:00 +15°C° 0.7 mm 2 mps 745 mmHg 87%
02:00 +15°C° 0 mm 2 mps 745 mmHg 93%
03:00 +15°C° 1.1 mm 2 mps 745 mmHg 94%
04:00 +14°C° 1.1 mm 3 mps 744 mmHg 95%
05:00 +14°C° 1.1 mm 4 mps 744 mmHg 96%
06:00 +15°C° 0.4 mm 4 mps 744 mmHg 95%
07:00 +15°C° 0.4 mm 4 mps 744 mmHg 94%
08:00 +17°C° 0.4 mm 4 mps 744 mmHg 92%
09:00 +18°C° 0.1 mm 3 mps 744 mmHg 86%
10:00 +19°C° 0.1 mm 3 mps 743 mmHg 80%
11:00 +20°C° 0.1 mm 3 mps 743 mmHg 74%
12:00 +21°C° 0.3 mm 3 mps 743 mmHg 69%
13:00 +22°C° 0.3 mm 3 mps 743 mmHg 65%
14:00 +24°C° 0.3 mm 3 mps 743 mmHg 60%
15:00 +24°C° 0.1 mm 2 mps 743 mmHg 60%
16:00 +24°C° 0.1 mm 2 mps 742 mmHg 60%
17:00 +24°C° 0.1 mm 2 mps 742 mmHg 60%
18:00 +23°C° 0 mm 2 mps 742 mmHg 66%
19:00 +20°C° 0 mm 2 mps 742 mmHg 71%
20:00 +19°C° 0 mm 2 mps 742 mmHg 77%
21:00 +18°C° 0 mm 3 mps 742 mmHg 81%
22:00 +17°C° 0 mm 3 mps 742 mmHg 85%
23:00 +17°C° 0 mm 3 mps 742 mmHg 88%

Tomorrow, 6 August, Friday

Time Temperature Precipitation Wind Pressure Humidity
00:00 +17°C° 0.1 mm 3 mps 741 mmHg 89%
01:00 +17°C° 0.1 mm 3 mps 741 mmHg 90%
02:00 +16°C° 0.1 mm 3 mps 741 mmHg 91%
03:00 +15°C° 0.2 mm 4 mps 740 mmHg 91%
04:00 +15°C° 0.2 mm 4 mps 740 mmHg 92%
05:00 +15°C° 0.2 mm 4 mps 739 mmHg 92%
06:00 +17°C° 0.9 mm 4 mps 739 mmHg 93%
07:00 +17°C° 0.9 mm 4 mps 738 mmHg 94%
08:00 +16°C° 0.9 mm 5 mps 738 mmHg 95%
09:00 +19°C° 0.3 mm 5 mps 738 mmHg 91%
10:00 +20°C° 0.3 mm 6 mps 738 mmHg 88%
11:00 +21°C° 0.3 mm 6 mps 737 mmHg 85%
12:00 +21°C° 0.4 mm 6 mps 737 mmHg 85%
13:00 +22°C° 0.4 mm 6 mps 737 mmHg 85%
14:00 +22°C° 0.4 mm 6 mps 737 mmHg 85%
15:00 +22°C° 0.3 mm 6 mps 737 mmHg 81%
16:00 +23°C° 0.3 mm 7 mps 737 mmHg 76%
17:00 +24°C° 0.3 mm 7 mps 737 mmHg 72%
18:00 +22°C° 0.2 mm 6 mps 736 mmHg 79%
19:00 +20°C° 0.2 mm 6 mps 736 mmHg 86%
20:00 +19°C° 0.2 mm 5 mps 736 mmHg 93%
21:00 +18°C° 0 mm 4 mps 736 mmHg 94%
22:00 +18°C° 0 mm 4 mps 737 mmHg 95%
23:00 +17°C° 0 mm 3 mps 737 mmHg 97%

Day after tomorrow, 7 August, Saturday

Time Temperature Precipitation Wind Pressure Humidity
00:00 +17°C° 0 mm 3 mps 737 mmHg 97%
01:00 +16°C° 0 mm 3 mps 737 mmHg 97%
02:00 +15°C° 0 mm 2 mps 738 mmHg 97%
03:00 +15°C° 0 mm 2 mps 738 mmHg 97%
04:00 +14°C° 0 mm 2 mps 738 mmHg 96%
05:00 +14°C° 0 mm 2 mps 738 mmHg 95%
06:00 +14°C° 0 mm 3 mps 738 mmHg 90%
07:00 +14°C° 0 mm 4 mps 738 mmHg 85%
08:00 +15°C° 0 mm 4 mps 739 mmHg 79%
09:00 +16°C° 0 mm 5 mps 739 mmHg 75%
10:00 +17°C° 0 mm 5 mps 739 mmHg 70%
11:00 +17°C° 0 mm 5 mps 740 mmHg 66%
12:00 +17°C° 0 mm 5 mps 740 mmHg 68%
13:00 +17°C° 0 mm 5 mps 740 mmHg 70%
14:00 +17°C° 0 mm 5 mps 740 mmHg 72%
15:00 +17°C° 0 mm 5 mps 741 mmHg 72%
16:00 +17°C° 0 mm 5 mps 741 mmHg 72%
17:00 +19°C° 0 mm 5 mps 741 mmHg 71%
18:00 +18°C° 0 mm 4 mps 741 mmHg 74%
19:00 +17°C° 0 mm 4 mps 742 mmHg 76%
20:00 +17°C° 0 mm 4 mps 742 mmHg 78%
21:00 +17°C° 0 mm 4 mps 742 mmHg 77%
22:00 +17°C° 0 mm 4 mps 742 mmHg 76%
23:00 +17°C° 0 mm 3 mps 743 mmHg 75%

8 August, Sunday

Time Temperature Precipitation Wind Pressure Humidity
00:00 +16°C° 0 mm 3 mps 743 mmHg 81%
01:00 +13°C° 0 mm 3 mps 743 mmHg 87%
02:00 +12°C° 0 mm 3 mps 744 mmHg 93%
03:00 +12°C° 0 mm 3 mps 744 mmHg 93%
04:00 +12°C° 0 mm 3 mps 744 mmHg 94%
05:00 +13°C° 0 mm 2 mps 744 mmHg 94%
06:00 +15°C° 0 mm 2 mps 745 mmHg 86%
07:00 +17°C° 0 mm 2 mps 745 mmHg 77%
08:00 +19°C° 0 mm 2 mps 745 mmHg 69%
09:00 +21°C° 0 mm 2 mps 745 mmHg 63%
10:00 +23°C° 0 mm 2 mps 746 mmHg 57%
11:00 +25°C° 0 mm 2 mps 746 mmHg 51%
12:00 +26°C° 0 mm 3 mps 746 mmHg 48%
13:00 +27°C° 0 mm 3 mps 746 mmHg 45%
14:00 +28°C° 0 mm 3 mps 746 mmHg 42%
15:00 +27°C° 0 mm 3 mps 746 mmHg 44%
16:00 +27°C° 0 mm 2 mps 746 mmHg 46%
17:00 +27°C° 0 mm 2 mps 746 mmHg 48%
18:00 +26°C° 0 mm 2 mps 746 mmHg 52%
19:00 +24°C° 0 mm 2 mps 746 mmHg 57%
20:00 +21°C° 0 mm 2 mps 746 mmHg 61%
21:00 +21°C° 0 mm 2 mps 746 mmHg 63%
22:00 +20°C° 0 mm 3 mps 746 mmHg 64%
23:00 +20°C° 0 mm 3 mps 747 mmHg 65%

9 August, Monday

Time Temperature Precipitation Wind Pressure Humidity
00:00 +19°C° 0 mm 3 mps 747 mmHg 69%
01:00 +18°C° 0 mm 3 mps 747 mmHg 72%
02:00 +18°C° 0 mm 3 mps 746 mmHg 75%
03:00 +18°C° 0 mm 3 mps 746 mmHg 77%
04:00 +17°C° 0 mm 3 mps 746 mmHg 80%
05:00 +17°C° 0 mm 3 mps 746 mmHg 82%
06:00 +19°C° 0 mm 4 mps 746 mmHg 76%
07:00 +21°C° 0 mm 4 mps 746 mmHg 70%
08:00 +23°C° 0 mm 5 mps 747 mmHg 64%
09:00 +25°C° 0 mm 5 mps 746 mmHg 58%
10:00 +27°C° 0 mm 5 mps 746 mmHg 53%
11:00 +29°C° 0 mm 5 mps 746 mmHg 47%
12:00 +29°C° 0 mm 5 mps 746 mmHg 46%
13:00 +29°C° 0 mm 5 mps 746 mmHg 45%
14:00 +29°C° 0 mm 5 mps 746 mmHg 44%
15:00 +29°C° 0 mm 4 mps 746 mmHg 49%
16:00 +28°C° 0 mm 3 mps 746 mmHg 54%
17:00 +27°C° 0 mm 2 mps 745 mmHg 58%
18:00 +25°C° 0.2 mm 2 mps 746 mmHg 68%
19:00 +24°C° 0.2 mm 3 mps 746 mmHg 77%
20:00 +21°C° 0.2 mm 3 mps 746 mmHg 87%
21:00 +20°C° 0.3 mm 3 mps 747 mmHg 90%
22:00 +19°C° 0.3 mm 3 mps 747 mmHg 93%
23:00 +18°C° 0.3 mm 2 mps 747 mmHg 96%

10 August, Tuesday

Time Temperature Precipitation Wind Pressure Humidity
00:00 +17°C° 0 mm 2 mps 747 mmHg 97%
01:00 +17°C° 0 mm 2 mps 747 mmHg 97%
02:00 +16°C° 0 mm 2 mps 747 mmHg 98%
03:00 +16°C° 0 mm 2 mps 747 mmHg 97%
04:00 +16°C° 0 mm 2 mps 747 mmHg 97%
05:00 +15°C° 0 mm 2 mps 748 mmHg 97%
06:00 +16°C° 0 mm 3 mps 748 mmHg 93%
07:00 +18°C° 0 mm 3 mps 748 mmHg 88%
08:00 +19°C° 0 mm 3 mps 748 mmHg 83%
09:00 +20°C° 0 mm 3 mps 748 mmHg 77%
10:00 +21°C° 0 mm 3 mps 748 mmHg 71%
11:00 +22°C° 0 mm 3 mps 748 mmHg 64%
12:00 +24°C° 0 mm 2 mps 748 mmHg 61%
13:00 +25°C° 0 mm 2 mps 748 mmHg 58%
14:00 +25°C° 0 mm 2 mps 748 mmHg 54%
15:00 +25°C° 0 mm 2 mps 748 mmHg 56%
16:00 +24°C° 0 mm 2 mps 748 mmHg 58%
17:00 +24°C° 0 mm 2 mps 747 mmHg 60%
18:00 +23°C° 0 mm 2 mps 747 mmHg 63%
19:00 +21°C° 0 mm 2 mps 747 mmHg 65%
20:00 +20°C° 0 mm 2 mps 747 mmHg 67%
21:00 +20°C° 0 mm 2 mps 747 mmHg 69%
22:00 +19°C° 0 mm 2 mps 747 mmHg 70%
23:00 +19°C° 0 mm 2 mps 747 mmHg 72%
Show more